• In Germany
  • List of Countries
  • For 7 days
  • Water Temperature
  • Satellite Maps
  • Weather Map
  • Weather Widgets
  • user-avatar
    Login

    Hourly Weather Stepanakert

    Today, 27 March, Monday

    Time Temperature Precipitation Wind Pressure Humidity
    00:00 +5°C° 0 mm 2 mps 691 mmHg 67%
    01:00 +5°C° 0 mm 2 mps 691 mmHg 65%
    02:00 +5°C° 0 mm 2 mps 691 mmHg 64%
    03:00 +5°C° 0 mm 2 mps 691 mmHg 63%
    04:00 +5°C° 0 mm 2 mps 691 mmHg 63%
    05:00 +5°C° 0 mm 2 mps 691 mmHg 63%
    06:00 +4°C° 0 mm 3 mps 691 mmHg 62%
    07:00 +8°C° 0 mm 2 mps 691 mmHg 55%
    08:00 +10°C° 0 mm 2 mps 691 mmHg 48%
    09:00 +14°C° 0 mm 2 mps 691 mmHg 41%
    10:00 +15°C° 0 mm 2 mps 691 mmHg 39%
    11:00 +17°C° 0 mm 3 mps 691 mmHg 36%
    12:00 +18°C° 0 mm 3 mps 690 mmHg 33%
    13:00 +18°C° 0 mm 3 mps 690 mmHg 33%
    14:00 +18°C° 0 mm 3 mps 689 mmHg 33%
    15:00 +18°C° 0 mm 4 mps 689 mmHg 33%
    16:00 +16°C° 0 mm 3 mps 689 mmHg 40%
    17:00 +14°C° 0 mm 2 mps 688 mmHg 46%
    18:00 +12°C° 0 mm 2 mps 688 mmHg 52%
    19:00 +10°C° 0 mm 2 mps 688 mmHg 54%
    20:00 +9°C° 0 mm 2 mps 689 mmHg 55%
    21:00 +9°C° 0 mm 2 mps 689 mmHg 56%
    22:00 +8°C° 0 mm 2 mps 689 mmHg 57%
    23:00 +8°C° 0 mm 2 mps 689 mmHg 57%

    Tomorrow, 28 March, Tuesday

    Time Temperature Precipitation Wind Pressure Humidity
    00:00 +8°C° 0 mm 2 mps 689 mmHg 57%
    01:00 +8°C° 0 mm 2 mps 689 mmHg 58%
    02:00 +7°C° 0 mm 2 mps 688 mmHg 58%
    03:00 +7°C° 0 mm 2 mps 688 mmHg 59%
    04:00 +7°C° 0 mm 2 mps 689 mmHg 60%
    05:00 +7°C° 0 mm 2 mps 689 mmHg 61%
    06:00 +6°C° 0 mm 2 mps 689 mmHg 63%
    07:00 +8°C° 0 mm 2 mps 690 mmHg 58%
    08:00 +10°C° 0 mm 3 mps 690 mmHg 53%
    09:00 +12°C° 0 mm 3 mps 691 mmHg 48%
    10:00 +12°C° 0.1 mm 4 mps 691 mmHg 49%
    11:00 +13°C° 0.1 mm 4 mps 691 mmHg 49%
    12:00 +13°C° 0.1 mm 4 mps 691 mmHg 49%
    13:00 +13°C° 0.1 mm 4 mps 691 mmHg 51%
    14:00 +12°C° 0.1 mm 3 mps 691 mmHg 52%
    15:00 +12°C° 0.1 mm 3 mps 690 mmHg 53%
    16:00 +11°C° 0 mm 3 mps 690 mmHg 59%
    17:00 +10°C° 0 mm 2 mps 690 mmHg 65%
    18:00 +8°C° 0 mm 2 mps 690 mmHg 70%
    19:00 +8°C° 0 mm 1 mps 691 mmHg 73%
    20:00 +7°C° 0 mm 1 mps 691 mmHg 76%
    21:00 +6°C° 0 mm 1 mps 691 mmHg 79%
    22:00 +6°C° 0 mm 1 mps 691 mmHg 79%
    23:00 +6°C° 0 mm 1 mps 691 mmHg 79%

    Day after tomorrow, 29 March, Wednesday

    Time Temperature Precipitation Wind Pressure Humidity
    00:00 +5°C° 0 mm 1 mps 691 mmHg 78%
    01:00 +5°C° 0 mm 1 mps 690 mmHg 79%
    02:00 +5°C° 0 mm 1 mps 690 mmHg 80%
    03:00 +4°C° 0 mm 1 mps 690 mmHg 81%
    04:00 +4°C° 0 mm 1 mps 690 mmHg 80%
    05:00 +4°C° 0 mm 1 mps 690 mmHg 80%
    06:00 +4°C° 0 mm 1 mps 690 mmHg 80%
    07:00 +6°C° 0 mm 2 mps 691 mmHg 69%
    08:00 +8°C° 0 mm 2 mps 691 mmHg 59%
    09:00 +11°C° 0 mm 3 mps 692 mmHg 48%
    10:00 +12°C° 0 mm 3 mps 692 mmHg 45%
    11:00 +13°C° 0 mm 3 mps 692 mmHg 42%
    12:00 +14°C° 0 mm 3 mps 692 mmHg 39%
    13:00 +16°C° 0 mm 3 mps 692 mmHg 39%
    14:00 +16°C° 0 mm 3 mps 691 mmHg 39%
    15:00 +16°C° 0 mm 3 mps 691 mmHg 39%
    16:00 +13°C° 0 mm 3 mps 691 mmHg 46%
    17:00 +12°C° 0 mm 2 mps 692 mmHg 53%
    18:00 +10°C° 0 mm 1 mps 692 mmHg 60%
    19:00 +9°C° 0 mm 1 mps 693 mmHg 65%
    20:00 +8°C° 0 mm 1 mps 693 mmHg 69%
    21:00 +7°C° 0 mm 1 mps 694 mmHg 74%
    22:00 +6°C° 0 mm 1 mps 694 mmHg 77%
    23:00 +6°C° 0 mm 1 mps 695 mmHg 80%

    30 March, Thursday

    Time Temperature Precipitation Wind Pressure Humidity
    00:00 +5°C° 0 mm 1 mps 695 mmHg 83%
    01:00 +5°C° 0 mm 1 mps 695 mmHg 86%
    02:00 +4°C° 0 mm 1 mps 695 mmHg 89%
    03:00 +4°C° 0 mm 1 mps 695 mmHg 91%
    04:00 +3°C° 0 mm 1 mps 696 mmHg 92%
    05:00 +3°C° 0 mm 1 mps 696 mmHg 92%
    06:00 +3°C° 0 mm 1 mps 696 mmHg 93%
    07:00 +5°C° 0 mm 1 mps 697 mmHg 85%
    08:00 +5°C° 0 mm 2 mps 697 mmHg 77%
    09:00 +7°C° 0 mm 2 mps 698 mmHg 70%
    10:00 +8°C° 0 mm 2 mps 697 mmHg 67%
    11:00 +8°C° 0 mm 2 mps 697 mmHg 65%
    12:00 +9°C° 0 mm 3 mps 696 mmHg 62%
    13:00 +9°C° 0 mm 2 mps 696 mmHg 62%
    14:00 +9°C° 0 mm 2 mps 695 mmHg 63%
    15:00 +10°C° 0 mm 2 mps 694 mmHg 63%
    16:00 +8°C° 0 mm 2 mps 694 mmHg 69%
    17:00 +8°C° 0 mm 1 mps 694 mmHg 76%
    18:00 +7°C° 0 mm 1 mps 694 mmHg 82%
    19:00 +6°C° 0 mm 1 mps 694 mmHg 84%
    20:00 +5°C° 0 mm 1 mps 694 mmHg 86%
    21:00 +3°C° 0 mm 0 mps 694 mmHg 88%
    22:00 +4°C° 0 mm 1 mps 693 mmHg 87%
    23:00 +4°C° 0 mm 1 mps 693 mmHg 85%

    31 March, Friday

    Time Temperature Precipitation Wind Pressure Humidity
    00:00 +4°C° 0 mm 1 mps 693 mmHg 84%
    01:00 +4°C° 0 mm 1 mps 692 mmHg 83%
    02:00 +4°C° 0 mm 1 mps 692 mmHg 81%
    03:00 +4°C° 0 mm 1 mps 692 mmHg 80%
    04:00 +4°C° 0 mm 1 mps 691 mmHg 79%
    05:00 +4°C° 0 mm 1 mps 691 mmHg 78%
    06:00 +5°C° 0 mm 1 mps 691 mmHg 77%
    07:00 +7°C° 0 mm 1 mps 692 mmHg 67%
    08:00 +10°C° 0 mm 1 mps 692 mmHg 56%
    09:00 +13°C° 0 mm 1 mps 693 mmHg 46%
    10:00 +15°C° 0 mm 2 mps 692 mmHg 44%
    11:00 +16°C° 0 mm 2 mps 692 mmHg 43%
    12:00 +17°C° 0 mm 3 mps 692 mmHg 41%
    13:00 +17°C° 0.1 mm 3 mps 692 mmHg 42%
    14:00 +17°C° 0.1 mm 3 mps 692 mmHg 43%
    15:00 +17°C° 0.1 mm 3 mps 692 mmHg 44%
    16:00 +15°C° 0.1 mm 2 mps 692 mmHg 50%
    17:00 +14°C° 0.1 mm 2 mps 692 mmHg 56%
    18:00 +12°C° 0.1 mm 1 mps 692 mmHg 62%
    19:00 +11°C° 0.1 mm 1 mps 692 mmHg 66%
    20:00 +9°C° 0.1 mm 2 mps 693 mmHg 70%
    21:00 +8°C° 0.1 mm 2 mps 694 mmHg 74%
    22:00 +7°C° 0.2 mm 2 mps 694 mmHg 76%
    23:00 +8°C° 0.2 mm 1 mps 694 mmHg 79%

    1 April, Saturday

    Time Temperature Precipitation Wind Pressure Humidity
    00:00 +7°C° 0.2 mm 1 mps 694 mmHg 82%
    01:00 +6°C° 0.3 mm 2 mps 694 mmHg 83%
    02:00 +5°C° 0.3 mm 2 mps 695 mmHg 85%
    03:00 +5°C° 0.3 mm 2 mps 695 mmHg 86%
    04:00 +4°C° 0.4 mm 3 mps 695 mmHg 86%
    05:00 +3°C° 0.4 mm 4 mps 695 mmHg 86%
    06:00 +3°C° 0.4 mm 4 mps 696 mmHg 86%
    07:00 +3°C° 0.4 mm 4 mps 696 mmHg 85%
    08:00 +1°C° 0.4 mm 4 mps 696 mmHg 85%
    09:00 +1°C° 0.4 mm 4 mps 697 mmHg 84%
    10:00 +1°C° 0.4 mm 4 mps 697 mmHg 82%
    11:00 +3°C° 0.4 mm 4 mps 697 mmHg 81%
    12:00 +3°C° 0.4 mm 4 mps 697 mmHg 80%
    13:00 +3°C° 0.3 mm 4 mps 697 mmHg 80%
    14:00 +3°C° 0.3 mm 3 mps 697 mmHg 80%
    15:00 +3°C° 0.3 mm 3 mps 697 mmHg 80%
    16:00 +2°C° 0.2 mm 3 mps 697 mmHg 82%
    17:00 +3°C° 0.2 mm 2 mps 697 mmHg 84%
    18:00 +2°C° 0.2 mm 2 mps 697 mmHg 86%
    19:00 +2°C° 0.1 mm 2 mps 698 mmHg 88%
    20:00 +2°C° 0.1 mm 1 mps 698 mmHg 89%
    21:00 +2°C° 0.1 mm 1 mps 698 mmHg 91%
    22:00 +2°C° 0.1 mm 1 mps 698 mmHg 91%
    23:00 +1°C° 0.1 mm 1 mps 697 mmHg 92%
    Show more